{"data":{"norad_id":60913,"intl_designator":"2024-154L","name":"STARLINK-11273 [DTC]","alt_names":[],"object_type":"PAYLOAD","status":"ACTIVE","operator":null,"country":"US","launch_date":"2024-08-31","launch_site_code":"AFETR","launch_vehicle":null,"mission":null,"orbit_class":"UNKNOWN","rcs_meters":null,"size_class":null,"mass_kg":null,"dimensions":null,"purposes":["comms"],"wikipedia_slug":null,"has_3d_model":false,"image_url":null,"decayed_at":null,"tle_current":{"epoch":"2026-05-25T04:59:23.914752Z","epoch_age_seconds":50950,"freshness":"FRESH","line1":"1 60913U 24154L   26145.20791568 -.00001059  00000+0 -38844-5 0  9999","line2":"2 60913  53.1592 113.9674 0001046  91.0324 269.0814 15.69713600100523","mean_motion":15.697136,"eccentricity":0.0001046,"inclination_deg":53.1592,"raan_deg":113.9674,"arg_perigee_deg":91.0324,"mean_anomaly_deg":269.0814,"bstar":-3.8844e-6,"rev_number":10052,"period_min":91.736479826638,"perigee_km":359.01166914675,"apogee_km":360.4212280882,"semimajor_km":6737.8534486175,"source":"CELESTRAK","updated_at":"2026-05-25T13:38:19.314229Z"}}}